Time,TemperatureF,DewpointF,PressureIn,WindDirection,WindDirectionDegrees,WindSpeedMPH,WindSpeedGustMPH,Humidity,HourlyPrecipIn,Conditions,Clouds,dailyrainin,SoftwareType,DateUTC
2013-05-05 00:02:00,53.0,39.0,-100.00,East,95,7.0,-999.0,58,-99.99,,,-99.99,,2013-05-05 04:02:00,
2013-05-05 00:12:00,53.0,39.0,-100.00,East,95,7.0,-999.0,58,-99.99,,,-99.99,,2013-05-05 04:12:00,
2013-05-05 00:23:00,52.0,38.0,-100.00,East,97,9.0,-999.0,56,-99.99,,,-99.99,,2013-05-05 04:23:00,
2013-05-05 00:32:00,52.0,38.0,-100.00,East,100,7.0,-999.0,57,-99.99,,,-99.99,,2013-05-05 04:32:00,
2013-05-05 00:43:00,52.0,38.0,-100.00,East,100,7.0,-999.0,57,-99.99,,,-99.99,,2013-05-05 04:43:00,
2013-05-05 00:53:00,52.0,38.0,-100.00,ESE,110,6.0,-999.0,58,-99.99,,,-99.99,,2013-05-05 04:53:00,
2013-05-05 01:02:00,51.0,38.0,-100.00,ESE,103,7.0,-999.0,60,-99.99,,,-99.99,,2013-05-05 05:02:00,
2013-05-05 01:12:00,51.0,38.0,-100.00,ESE,103,7.0,-999.0,60,-99.99,,,-99.99,,2013-05-05 05:12:00,
2013-05-05 01:22:00,51.0,38.0,-100.00,ESE,106,7.0,-999.0,61,-99.99,,,-99.99,,2013-05-05 05:22:00,
2013-05-05 01:32:00,51.0,38.0,-100.00,ESE,106,7.0,-999.0,61,-99.99,,,-99.99,,2013-05-05 05:32:00,
2013-05-05 01:42:00,51.0,38.0,-100.00,ESE,106,7.0,-999.0,61,-99.99,,,-99.99,,2013-05-05 05:42:00,
2013-05-05 01:52:00,50.0,39.0,-100.00,East,81,6.0,-999.0,64,-99.99,,,-99.99,,2013-05-05 05:52:00,
2013-05-05 02:01:00,50.0,39.0,-100.00,East,81,6.0,-999.0,64,-99.99,,,-99.99,,2013-05-05 06:01:00,
2013-05-05 02:12:00,50.0,39.0,-100.00,East,81,6.0,-999.0,64,-99.99,,,-99.99,,2013-05-05 06:12:00,
2013-05-05 02:21:00,49.0,40.0,-100.00,ENE,73,7.0,-999.0,68,-99.99,,,-99.99,,2013-05-05 06:21:00,
2013-05-05 02:32:00,49.0,40.0,-100.00,ENE,73,7.0,-999.0,68,-99.99,,,-99.99,,2013-05-05 06:32:00,
2013-05-05 02:42:00,49.0,40.0,-100.00,ENE,73,7.0,-999.0,68,-99.99,,,-99.99,,2013-05-05 06:42:00,
2013-05-05 02:52:00,48.0,39.0,-100.00,ENE,78,7.0,-999.0,69,-99.99,,,-99.99,,2013-05-05 06:52:00,
2013-05-05 03:01:00,48.0,39.0,-100.00,ENE,78,7.0,-999.0,69,-99.99,,,-99.99,,2013-05-05 07:01:00,
2013-05-05 03:11:00,48.0,39.0,-100.00,ENE,78,7.0,-999.0,69,-99.99,,,-99.99,,2013-05-05 07:11:00,
2013-05-05 03:22:00,48.0,39.0,-100.00,East,82,8.0,-999.0,72,-99.99,,,-99.99,,2013-05-05 07:22:00,
2013-05-05 03:32:00,48.0,39.0,-100.00,East,82,8.0,-999.0,72,-99.99,,,-99.99,,2013-05-05 07:32:00,
2013-05-05 03:42:00,48.0,39.0,-100.00,East,82,8.0,-999.0,72,-99.99,,,-99.99,,2013-05-05 07:42:00,
2013-05-05 03:52:00,47.0,39.0,-100.00,East,81,9.0,-999.0,74,-99.99,,,-99.99,,2013-05-05 07:52:00,
2013-05-05 04:02:00,47.0,39.0,-100.00,East,81,9.0,-999.0,74,-99.99,,,-99.99,,2013-05-05 08:02:00,
2013-05-05 04:11:00,47.0,39.0,-100.00,East,81,9.0,-999.0,74,-99.99,,,-99.99,,2013-05-05 08:11:00,
2013-05-05 04:21:00,47.0,39.0,-100.00,East,96,8.0,-999.0,73,-99.99,,,-99.99,,2013-05-05 08:21:00,
2013-05-05 04:32:00,47.0,39.0,-100.00,East,96,8.0,-999.0,73,-99.99,,,-99.99,,2013-05-05 08:32:00,
2013-05-05 04:42:00,47.0,39.0,-100.00,East,96,8.0,-999.0,73,-99.99,,,-99.99,,2013-05-05 08:42:00,
2013-05-05 04:53:00,47.0,39.0,-100.00,East,89,8.0,-999.0,74,-99.99,,,-99.99,,2013-05-05 08:53:00,
2013-05-05 05:01:00,47.0,39.0,-100.00,East,89,8.0,-999.0,74,-99.99,,,-99.99,,2013-05-05 09:01:00,
2013-05-05 05:11:00,47.0,39.0,-100.00,East,89,8.0,-999.0,74,-99.99,,,-99.99,,2013-05-05 09:11:00,
2013-05-05 05:22:00,46.0,39.0,-100.00,East,82,6.0,-999.0,74,-99.99,,,-99.99,,2013-05-05 09:22:00,
2013-05-05 05:33:00,46.0,39.0,-100.00,East,82,6.0,-999.0,74,-99.99,,,-99.99,,2013-05-05 09:33:00,
2013-05-05 05:42:00,46.0,39.0,-100.00,East,82,6.0,-999.0,74,-99.99,,,-99.99,,2013-05-05 09:42:00,
2013-05-05 05:52:00,46.0,39.0,-100.00,ENE,73,6.0,-999.0,74,-99.99,,,-99.99,,2013-05-05 09:52:00,
2013-05-05 06:03:00,46.0,39.0,-100.00,ENE,73,6.0,-999.0,74,-99.99,,,-99.99,,2013-05-05 10:03:00,
2013-05-05 06:12:00,46.0,39.0,-100.00,ENE,73,6.0,-999.0,74,-99.99,,,-99.99,,2013-05-05 10:12:00,
2013-05-05 06:22:00,46.0,39.0,-100.00,NE,51,9.0,-999.0,74,-99.99,,,-99.99,,2013-05-05 10:22:00,
2013-05-05 06:32:00,46.0,39.0,-100.00,NE,51,9.0,-999.0,74,-99.99,,,-99.99,,2013-05-05 10:32:00,
2013-05-05 06:42:00,46.0,39.0,-100.00,NE,51,9.0,-999.0,74,-99.99,,,-99.99,,2013-05-05 10:42:00,
2013-05-05 06:53:00,46.0,37.0,-100.00,NE,48,11.0,-999.0,71,-99.99,,,-99.99,,2013-05-05 10:53:00,
2013-05-05 07:01:00,46.0,37.0,-100.00,NE,48,11.0,-999.0,71,-99.99,,,-99.99,,2013-05-05 11:01:00,
2013-05-05 07:12:00,46.0,37.0,-100.00,NE,48,11.0,-999.0,71,-99.99,,,-99.99,,2013-05-05 11:12:00,
2013-05-05 07:22:00,46.0,37.0,-100.00,ENE,61,12.0,-999.0,71,-99.99,,,-99.99,,2013-05-05 11:22:00,
2013-05-05 07:32:00,46.0,37.0,-100.00,ENE,71,9.0,-999.0,70,-99.99,,,-99.99,,2013-05-05 11:32:00,
2013-05-05 07:42:00,46.0,37.0,-100.00,ENE,71,9.0,-999.0,70,-99.99,,,-99.99,,2013-05-05 11:42:00,
2013-05-05 07:52:00,46.0,37.0,-100.00,ENE,61,11.0,-999.0,71,-99.99,,,-99.99,,2013-05-05 11:52:00,
2013-05-05 08:02:00,46.0,37.0,-100.00,ENE,71,13.0,-999.0,70,-99.99,,,-99.99,,2013-05-05 12:02:00,
2013-05-05 08:11:00,46.0,37.0,-100.00,ENE,71,13.0,-999.0,70,-99.99,,,-99.99,,2013-05-05 12:11:00,
2013-05-05 08:21:00,46.0,36.0,-100.00,East,79,13.0,-999.0,67,-99.99,,,-99.99,,2013-05-05 12:21:00,
2013-05-05 08:32:00,46.0,36.0,-100.00,ENE,77,15.0,-999.0,66,-99.99,,,-99.99,,2013-05-05 12:32:00,
2013-05-05 08:42:00,46.0,36.0,-100.00,ENE,77,15.0,-999.0,66,-99.99,,,-99.99,,2013-05-05 12:42:00,
2013-05-05 08:52:00,46.0,36.0,-100.00,ENE,61,13.0,-999.0,66,-99.99,,,-99.99,,2013-05-05 12:52:00,
2013-05-05 09:01:00,46.0,36.0,-100.00,ENE,64,12.0,-999.0,66,-99.99,,,-99.99,,2013-05-05 13:01:00,
2013-05-05 09:11:00,46.0,36.0,-100.00,ENE,64,12.0,-999.0,66,-99.99,,,-99.99,,2013-05-05 13:11:00,
2013-05-05 09:21:00,47.0,36.0,-100.00,ENE,61,9.0,-999.0,65,-99.99,,,-99.99,,2013-05-05 13:21:00,
2013-05-05 09:32:00,47.0,36.0,-100.00,ENE,61,11.0,-999.0,65,-99.99,,,-99.99,,2013-05-05 13:32:00,
2013-05-05 09:42:00,47.0,36.0,-100.00,ENE,61,11.0,-999.0,65,-99.99,,,-99.99,,2013-05-05 13:42:00,
2013-05-05 09:52:00,47.0,36.0,-100.00,ENE,63,11.0,-999.0,65,-99.99,,,-99.99,,2013-05-05 13:52:00,
2013-05-05 10:02:00,48.0,36.0,-100.00,ENE,76,9.0,-999.0,64,-99.99,,,-99.99,,2013-05-05 14:02:00,
2013-05-05 10:11:00,48.0,36.0,-100.00,ENE,76,9.0,-999.0,64,-99.99,,,-99.99,,2013-05-05 14:11:00,
2013-05-05 10:21:00,48.0,36.0,-100.00,ENE,66,10.0,-999.0,63,-99.99,,,-99.99,,2013-05-05 14:21:00,
2013-05-05 10:32:00,48.0,36.0,-100.00,NE,56,10.0,-999.0,62,-99.99,,,-99.99,,2013-05-05 14:32:00,
2013-05-05 10:42:00,48.0,36.0,-100.00,NE,56,10.0,-999.0,62,-99.99,,,-99.99,,2013-05-05 14:42:00,
2013-05-05 10:52:00,49.0,36.0,-100.00,East,81,10.0,-999.0,61,-99.99,,,-99.99,,2013-05-05 14:52:00,
2013-05-05 11:02:00,49.0,36.0,-100.00,ENE,72,8.0,-999.0,61,-99.99,,,-99.99,,2013-05-05 15:02:00,
2013-05-05 11:11:00,49.0,36.0,-100.00,ENE,72,8.0,-999.0,61,-99.99,,,-99.99,,2013-05-05 15:11:00,
2013-05-05 11:21:00,49.0,36.0,-100.00,ENE,57,10.0,-999.0,60,-99.99,,,-99.99,,2013-05-05 15:21:00,
2013-05-05 11:33:00,50.0,36.0,-100.00,ENE,64,10.0,-999.0,59,-99.99,,,-99.99,,2013-05-05 15:33:00,
2013-05-05 11:43:00,50.0,36.0,-100.00,ENE,64,10.0,-999.0,59,-99.99,,,-99.99,,2013-05-05 15:43:00,
2013-05-05 11:53:00,50.0,36.0,-100.00,East,86,9.0,-999.0,58,-99.99,,,-99.99,,2013-05-05 15:53:00,
2013-05-05 12:03:00,51.0,36.0,-100.00,East,80,10.0,-999.0,56,-99.99,,,-99.99,,2013-05-05 16:03:00,
2013-05-05 12:12:00,51.0,36.0,-100.00,East,80,10.0,-999.0,56,-99.99,,,-99.99,,2013-05-05 16:12:00,
2013-05-05 12:23:00,52.0,36.0,-100.00,ESE,102,11.0,-999.0,54,-99.99,,,-99.99,,2013-05-05 16:23:00,
2013-05-05 12:32:00,52.0,36.0,-100.00,ESE,111,11.0,-999.0,54,-99.99,,,-99.99,,2013-05-05 16:32:00,
2013-05-05 12:42:00,52.0,36.0,-100.00,ESE,111,11.0,-999.0,54,-99.99,,,-99.99,,2013-05-05 16:42:00,
2013-05-05 12:53:00,53.0,37.0,-100.00,ESE,105,10.0,-999.0,53,-99.99,,,-99.99,,2013-05-05 16:53:00,
2013-05-05 13:02:00,53.0,37.0,-100.00,ENE,75,8.0,-999.0,53,-99.99,,,-99.99,,2013-05-05 17:02:00,
2013-05-05 13:12:00,53.0,37.0,-100.00,ENE,75,8.0,-999.0,53,-99.99,,,-99.99,,2013-05-05 17:12:00,
2013-05-05 13:23:00,54.0,37.0,-100.00,East,92,7.0,-999.0,52,-99.99,,,-99.99,,2013-05-05 17:23:00,
2013-05-05 13:32:00,54.0,37.0,-100.00,ENE,67,9.0,-999.0,51,-99.99,,,-99.99,,2013-05-05 17:32:00,
2013-05-05 13:42:00,54.0,37.0,-100.00,ENE,67,9.0,-999.0,51,-99.99,,,-99.99,,2013-05-05 17:42:00,
2013-05-05 13:52:00,55.0,36.0,-100.00,East,98,11.0,-999.0,49,-99.99,,,-99.99,,2013-05-05 17:52:00,
2013-05-05 14:01:00,56.0,37.0,-100.00,East,91,9.0,-999.0,48,-99.99,,,-99.99,,2013-05-05 18:01:00,
2013-05-05 14:12:00,56.0,37.0,-100.00,East,91,9.0,-999.0,48,-99.99,,,-99.99,,2013-05-05 18:12:00,
2013-05-05 14:21:00,56.0,37.0,-100.00,ESE,102,8.0,-999.0,47,-99.99,,,-99.99,,2013-05-05 18:21:00,
2013-05-05 14:32:00,57.0,37.0,-100.00,East,85,8.0,-999.0,46,-99.99,,,-99.99,,2013-05-05 18:32:00,
2013-05-05 14:42:00,57.0,37.0,-100.00,East,85,8.0,-999.0,46,-99.99,,,-99.99,,2013-05-05 18:42:00,
2013-05-05 14:52:00,57.0,37.0,-100.00,East,91,11.0,-999.0,47,-99.99,,,-99.99,,2013-05-05 18:52:00,
2013-05-05 15:01:00,58.0,37.0,-100.00,East,85,7.0,-999.0,46,-99.99,,,-99.99,,2013-05-05 19:01:00,
2013-05-05 15:11:00,58.0,37.0,-100.00,East,85,7.0,-999.0,46,-99.99,,,-99.99,,2013-05-05 19:11:00,
2013-05-05 15:21:00,58.0,37.0,-100.00,ENE,78,9.0,-999.0,46,-99.99,,,-99.99,,2013-05-05 19:21:00,
2013-05-05 15:32:00,59.0,37.0,-100.00,East,91,9.0,-999.0,45,-99.99,,,-99.99,,2013-05-05 19:32:00,
2013-05-05 15:42:00,59.0,37.0,-100.00,East,91,9.0,-999.0,45,-99.99,,,-99.99,,2013-05-05 19:42:00,
2013-05-05 15:52:00,59.0,38.0,-100.00,ESE,108,9.0,-999.0,45,-99.99,,,-99.99,,2013-05-05 19:52:00,
2013-05-05 16:01:00,59.0,38.0,-100.00,ENE,72,8.0,-999.0,45,-99.99,,,-99.99,,2013-05-05 20:01:00,
2013-05-05 16:11:00,59.0,38.0,-100.00,ENE,72,8.0,-999.0,45,-99.99,,,-99.99,,2013-05-05 20:11:00,
2013-05-05 16:21:00,59.0,37.0,-100.00,ESE,105,10.0,-999.0,44,-99.99,,,-99.99,,2013-05-05 20:21:00,
2013-05-05 16:32:00,59.0,38.0,-100.00,East,92,10.0,-999.0,45,-99.99,,,-99.99,,2013-05-05 20:32:00,
2013-05-05 16:42:00,59.0,38.0,-100.00,East,92,10.0,-999.0,45,-99.99,,,-99.99,,2013-05-05 20:42:00,
2013-05-05 16:52:00,59.0,38.0,-100.00,ENE,70,10.0,-999.0,45,-99.99,,,-99.99,,2013-05-05 20:52:00,
2013-05-05 17:02:00,60.0,38.0,-100.00,East,82,9.0,-999.0,44,-99.99,,,-99.99,,2013-05-05 21:02:00,
2013-05-05 17:11:00,60.0,38.0,-100.00,East,82,9.0,-999.0,44,-99.99,,,-99.99,,2013-05-05 21:11:00,
2013-05-05 17:22:00,60.0,39.0,-100.00,East,88,10.0,-999.0,45,-99.99,,,-99.99,,2013-05-05 21:22:00,
2013-05-05 17:33:00,60.0,39.0,-100.00,ESE,115,9.0,-999.0,45,-99.99,,,-99.99,,2013-05-05 21:33:00,
2013-05-05 17:42:00,60.0,39.0,-100.00,ESE,115,9.0,-999.0,45,-99.99,,,-99.99,,2013-05-05 21:42:00,
2013-05-05 17:53:00,60.0,40.0,-100.00,East,82,11.0,-999.0,47,-99.99,,,-99.99,,2013-05-05 21:53:00,
2013-05-05 18:02:00,60.0,40.0,-100.00,East,101,9.0,-999.0,46,-99.99,,,-99.99,,2013-05-05 22:02:00,
2013-05-05 18:12:00,60.0,40.0,-100.00,East,101,9.0,-999.0,46,-99.99,,,-99.99,,2013-05-05 22:12:00,
2013-05-05 18:22:00,60.0,40.0,-100.00,ESE,109,11.0,-999.0,47,-99.99,,,-99.99,,2013-05-05 22:22:00,
2013-05-05 18:33:00,60.0,39.0,-100.00,ESE,121,11.0,-999.0,47,-99.99,,,-99.99,,2013-05-05 22:33:00,
2013-05-05 18:42:00,60.0,39.0,-100.00,ESE,121,11.0,-999.0,47,-99.99,,,-99.99,,2013-05-05 22:42:00,
2013-05-05 18:52:00,60.0,39.0,-100.00,East,97,11.0,-999.0,46,-99.99,,,-99.99,,2013-05-05 22:52:00,
2013-05-05 19:02:00,60.0,39.0,-100.00,ESE,103,9.0,-999.0,46,-99.99,,,-99.99,,2013-05-05 23:02:00,
2013-05-05 19:11:00,60.0,39.0,-100.00,ESE,103,9.0,-999.0,46,-99.99,,,-99.99,,2013-05-05 23:11:00,
2013-05-05 19:21:00,60.0,40.0,-100.00,ESE,108,10.0,-999.0,48,-99.99,,,-99.99,,2013-05-05 23:21:00,
2013-05-05 19:32:00,59.0,41.0,-100.00,East,96,10.0,-999.0,49,-99.99,,,-99.99,,2013-05-05 23:32:00,
2013-05-05 19:42:00,59.0,41.0,-100.00,East,96,10.0,-999.0,49,-99.99,,,-99.99,,2013-05-05 23:42:00,
2013-05-05 19:52:00,59.0,41.0,-100.00,ESE,105,9.0,-999.0,51,-99.99,,,-99.99,,2013-05-05 23:52:00,
2013-05-05 20:01:00,59.0,42.0,-100.00,East,91,9.0,-999.0,52,-99.99,,,-99.99,,2013-05-06 00:01:00,
2013-05-05 20:11:00,59.0,42.0,-100.00,East,91,9.0,-999.0,52,-99.99,,,-99.99,,2013-05-06 00:11:00,
2013-05-05 20:21:00,58.0,42.0,-100.00,East,99,10.0,-999.0,54,-99.99,,,-99.99,,2013-05-06 00:21:00,
2013-05-05 20:32:00,58.0,42.0,-100.00,East,96,10.0,-999.0,55,-99.99,,,-99.99,,2013-05-06 00:32:00,
2013-05-05 20:41:00,58.0,42.0,-100.00,East,96,10.0,-999.0,55,-99.99,,,-99.99,,2013-05-06 00:41:00,
2013-05-05 20:52:00,58.0,42.0,-100.00,East,95,9.0,-999.0,56,-99.99,,,-99.99,,2013-05-06 00:52:00,
2013-05-05 21:01:00,58.0,43.0,-100.00,ESE,104,7.0,-999.0,57,-99.99,,,-99.99,,2013-05-06 01:01:00,
2013-05-05 21:11:00,58.0,43.0,-100.00,ESE,104,7.0,-999.0,57,-99.99,,,-99.99,,2013-05-06 01:11:00,
2013-05-05 21:21:00,57.0,43.0,-100.00,East,81,7.0,-999.0,58,-99.99,,,-99.99,,2013-05-06 01:21:00,
2013-05-05 21:31:00,57.0,43.0,-100.00,East,92,7.0,-999.0,59,-99.99,,,-99.99,,2013-05-06 01:31:00,
2013-05-05 21:42:00,57.0,43.0,-100.00,East,92,7.0,-999.0,59,-99.99,,,-99.99,,2013-05-06 01:42:00,
2013-05-05 21:52:00,56.0,44.0,-100.00,East,93,9.0,-999.0,61,-99.99,,,-99.99,,2013-05-06 01:52:00,
2013-05-05 22:02:00,56.0,44.0,-100.00,East,84,7.0,-999.0,63,-99.99,,,-99.99,,2013-05-06 02:02:00,
2013-05-05 22:12:00,56.0,44.0,-100.00,East,84,7.0,-999.0,63,-99.99,,,-99.99,,2013-05-06 02:12:00,
2013-05-05 22:21:00,56.0,44.0,-100.00,East,86,7.0,-999.0,64,-99.99,,,-99.99,,2013-05-06 02:21:00,
2013-05-05 22:32:00,55.0,44.0,-100.00,East,81,8.0,-999.0,66,-99.99,,,-99.99,,2013-05-06 02:32:00,
2013-05-05 22:42:00,55.0,44.0,-100.00,East,81,8.0,-999.0,66,-99.99,,,-99.99,,2013-05-06 02:42:00,
2013-05-05 22:52:00,55.0,45.0,-100.00,East,95,7.0,-999.0,67,-99.99,,,-99.99,,2013-05-06 02:52:00,
2013-05-05 23:02:00,54.0,45.0,-100.00,ESE,103,8.0,-999.0,69,-99.99,,,-99.99,,2013-05-06 03:02:00,
2013-05-05 23:11:00,54.0,45.0,-100.00,ESE,103,8.0,-999.0,69,-99.99,,,-99.99,,2013-05-06 03:11:00,
2013-05-05 23:22:00,54.0,45.0,-100.00,ESE,106,6.0,-999.0,70,-99.99,,,-99.99,,2013-05-06 03:22:00,
2013-05-05 23:33:00,54.0,45.0,-100.00,East,93,7.0,-999.0,71,-99.99,,,-99.99,,2013-05-06 03:33:00,
2013-05-05 23:42:00,54.0,45.0,-100.00,East,93,7.0,-999.0,71,-99.99,,,-99.99,,2013-05-06 03:42:00,
2013-05-05 23:52:00,53.0,45.0,-100.00,East,98,7.0,-999.0,73,-99.99,,,-99.99,,2013-05-06 03:52:00,